Weather History for Sarnia, ON

Change the Weather History Date:

Wednesday, December 12, 2012

  Actual Average Record
Temperature  
Mean Temperature 17 °F -  
Max Temperature 33 °F 38 °F 59 °F (1949)
Min Temperature 1 °F 23 °F -12 °F (2013)
Degree Days  
Heating Degree Days 48    
Moisture  
Dew Point 25 °F    
Average Humidity 81    
Maximum Humidity 93    
Minimum Humidity 53    
Precipitation  
Precipitation 0.02 in - - ()
Sea Level Pressure  
Sea Level Pressure 30.29 in    
Wind  
Wind Speed 10 mph ()    
Max Wind Speed 15 mph    
Max Gust Speed 22 mph    
Visibility 8.7 miles    
Events      
Averages and records for this station are not official NWS values.
T = Trace of Precipitation, MM = Missing Value Source: Averaged Metar Reports

Daily Weather History Graph

Daily Weather History Graph

Search for Another Location

Airport:

Trip Planner

Search our weather history database for the weather conditions in past years. The results will help you decide how hot, cold, wet, or windy it might be!

Date:

Astronomy

Dec. 12, 2012 Rise Set
Actual Time 7:51 AM EST 4:54 PM EST
Civil Twilight 7:19 AM EST 5:27 PM EST
Nautical Twilight 6:43 AM EST 6:02 PM EST
Astronomical Twilight 6:09 AM EST 6:37 PM EST
Moon 6:54 AM EST (12/12) 4:31 PM EST (12/12)
Length of Visible Light 10h 07m
Length of Day
9h 03m
Waning Crescent, 1% of the Moon is Illuminated
Dec 12
Waning Crescent
Dec 13
New
Dec 20
First Quarter
Dec 28
Full
Jan 4
Last Quarter

Hourly Weather History & Observations

Time (EST) Temp. Windchill Dew Point Humidity Pressure Visibility Wind Dir Wind Speed Gust Speed Precip Events Conditions
12:00 AM 30.2 °F 20.2 °F 23.0 °F 75% 30.16 in 9.0 mi SW 12.7 mph - N/A   Clear
12:03 AM 30.2 °F 19.8 °F 23.0 °F 75% 30.15 in 9.0 mi SW 13.8 mph - N/A   Clear
12:19 AM 30.2 °F 19.3 °F 23.0 °F 75% 30.16 in 9.0 mi SW 15.0 mph - N/A   Partly Cloudy
12:21 AM 30.2 °F 19.3 °F 23.0 °F 75% 30.16 in 9.0 mi SW 15.0 mph - N/A   Partly Cloudy
12:38 AM 30.2 °F 19.8 °F 23.0 °F 75% 30.17 in 9.0 mi SW 13.8 mph 19.6 mph N/A   Partly Cloudy
12:40 AM 30.2 °F 20.8 °F 23.0 °F 75% 30.17 in 9.0 mi SW 11.5 mph 19.6 mph N/A   Partly Cloudy
12:56 AM 30.2 °F 20.2 °F 23.0 °F 75% 30.17 in 9.0 mi SW 12.7 mph 20.7 mph N/A   Clear
12:59 AM 30.2 °F 20.8 °F 23.0 °F 75% 30.17 in 9.0 mi SW 11.5 mph 20.7 mph N/A   Clear
1:00 AM 8 °F - 6 °F 87% 30.06 in - WNW 2.3 mph - -  
1:00 AM 30.2 °F 19.8 °F 23.0 °F 75% 30.17 in 9.0 mi SW 13.8 mph 20.7 mph N/A   Clear
1:15 AM 28.4 °F 18.5 °F 23.0 °F 80% 30.17 in 9.0 mi SW 11.5 mph 21.9 mph N/A   Clear
1:17 AM 28.4 °F 18.5 °F 23.0 °F 80% 30.17 in 9.0 mi SW 11.5 mph 21.9 mph N/A   Clear
1:34 AM 28.4 °F 19.1 °F 23.0 °F 80% 30.17 in 9.0 mi SW 10.4 mph 17.3 mph N/A   Clear
1:36 AM 28.4 °F 18.0 °F 23.0 °F 80% 30.17 in 9.0 mi SW 12.7 mph - N/A   Clear
1:53 AM 28.4 °F 19.7 °F 23.0 °F 80% 30.18 in 9.0 mi SW 9.2 mph 18.4 mph N/A   Clear
1:55 AM 28.4 °F 18.5 °F 23.0 °F 80% 30.18 in 9.0 mi SW 11.5 mph 18.4 mph N/A   Clear
2:00 AM 28.4 °F 18.0 °F 23.0 °F 80% 30.18 in 9.0 mi SW 12.7 mph 18.4 mph N/A   Clear
2:11 AM 28.4 °F 18.5 °F 23.0 °F 80% 30.18 in 9.0 mi SW 11.5 mph 18.4 mph N/A   Clear
2:14 AM 28.4 °F 18.0 °F 23.0 °F 80% 30.18 in 9.0 mi SW 12.7 mph 18.4 mph N/A   Clear
2:30 AM 28.4 °F 18.5 °F 23.0 °F 80% 30.19 in 9.0 mi SW 11.5 mph 19.6 mph N/A   Clear
2:32 AM 28.4 °F 18.5 °F 23.0 °F 80% 30.20 in 9.0 mi SW 11.5 mph 19.6 mph N/A   Clear
2:49 AM 28.4 °F 18.5 °F 23.0 °F 80% 30.20 in 9.0 mi SW 11.5 mph 19.6 mph N/A   Clear
2:51 AM 28.4 °F 19.1 °F 23.0 °F 80% 30.20 in 9.0 mi SW 10.4 mph 19.6 mph N/A   Clear
3:00 AM 28.4 °F 19.1 °F 23.0 °F 80% 30.21 in 9.0 mi SW 10.4 mph - N/A   Clear
3:07 AM 28.4 °F 19.1 °F 23.0 °F 80% 30.21 in 9.0 mi SW 10.4 mph - N/A   Clear
3:10 AM 28.4 °F 17.5 °F 23.0 °F 80% 30.21 in 9.0 mi SW 13.8 mph 21.9 mph N/A   Clear
3:26 AM 28.4 °F 18.5 °F 23.0 °F 80% 30.21 in 9.0 mi SSW 11.5 mph - N/A   Clear
3:28 AM 28.4 °F 18.5 °F 23.0 °F 80% 30.21 in 9.0 mi SSW 11.5 mph - N/A   Clear
3:44 AM 28.4 °F 18.5 °F 23.0 °F 80% 30.21 in 9.0 mi SSW 11.5 mph - N/A   Mostly Cloudy
3:47 AM 28.4 °F 18.0 °F 23.0 °F 80% 30.21 in 9.0 mi SSW 12.7 mph - N/A   Mostly Cloudy
4:00 AM 28.4 °F 19.1 °F 23.0 °F 80% 30.22 in 9.0 mi SW 10.4 mph - N/A   Overcast
4:06 AM 28.4 °F 18.0 °F 23.0 °F 80% 30.22 in 9.0 mi SW 12.7 mph - N/A   Mostly Cloudy
4:22 AM 28.4 °F 19.1 °F 23.0 °F 80% 30.22 in 9.0 mi SW 10.4 mph 17.3 mph N/A   Mostly Cloudy
4:24 AM 28.4 °F 18.0 °F 23.0 °F 80% 30.22 in 9.0 mi SW 12.7 mph - N/A   Mostly Cloudy
4:41 AM 30.2 °F 20.8 °F 23.0 °F 75% 30.22 in 9.0 mi SW 11.5 mph - N/A   Overcast
4:43 AM 30.2 °F 21.3 °F 23.0 °F 75% 30.22 in 9.0 mi SW 10.4 mph - N/A   Overcast
4:59 AM 28.4 °F 19.7 °F 23.0 °F 80% 30.22 in 9.0 mi SSW 9.2 mph - N/A   Overcast
5:00 AM 28.4 °F 19.1 °F 23.0 °F 80% 30.22 in 9.0 mi SSW 10.4 mph - N/A   Overcast
5:02 AM 28.4 °F 19.1 °F 24.8 °F 86% 30.22 in 9.0 mi SSW 10.4 mph - N/A   Overcast
5:18 AM 28.4 °F 19.7 °F 24.8 °F 86% 30.22 in 9.0 mi SSW 9.2 mph - N/A   Overcast
5:20 AM 28.4 °F 18.5 °F 24.8 °F 86% 30.23 in 9.0 mi SW 11.5 mph - N/A   Overcast
5:37 AM 28.4 °F 18.5 °F 24.8 °F 86% 30.23 in 9.0 mi SSW 11.5 mph - N/A   Overcast
5:39 AM 28.4 °F 19.1 °F 24.8 °F 86% 30.23 in 9.0 mi SSW 10.4 mph - N/A   Overcast
5:55 AM 28.4 °F 19.1 °F 24.8 °F 86% 30.24 in 9.0 mi SSW 10.4 mph - N/A   Overcast
5:58 AM 28.4 °F 18.5 °F 24.8 °F 86% 30.24 in 9.0 mi SSW 11.5 mph - N/A   Overcast
6:00 AM 28.4 °F 18.0 °F 24.8 °F 86% 30.24 in 9.0 mi SSW 12.7 mph - N/A   Overcast
6:14 AM 28.4 °F 18.5 °F 24.8 °F 86% 30.25 in 9.0 mi SSW 11.5 mph - N/A   Overcast
6:16 AM 28.4 °F 18.5 °F 24.8 °F 86% 30.25 in 9.0 mi SSW 11.5 mph - N/A   Overcast
6:33 AM 30.2 °F 19.8 °F 24.8 °F 80% 30.25 in 9.0 mi SSW 13.8 mph - N/A   Overcast
6:35 AM 28.4 °F 19.1 °F 24.8 °F 86% 30.25 in 9.0 mi SSW 10.4 mph - N/A   Overcast
6:51 AM 30.2 °F 20.8 °F 24.8 °F 80% 30.26 in 9.0 mi SSW 11.5 mph - N/A   Overcast
6:54 AM 30.2 °F 20.8 °F 24.8 °F 80% 30.26 in 9.0 mi SSW 11.5 mph - N/A   Overcast
7:00 AM 2 °F - -1 °F 81% 30.20 in - Calm Calm - -  
7:00 AM 30.2 °F 20.8 °F 24.8 °F 80% 30.26 in 9.0 mi SSW 11.5 mph - N/A   Overcast
7:10 AM 30.2 °F 19.8 °F 24.8 °F 80% 30.26 in 9.0 mi SSW 13.8 mph - N/A   Overcast
7:12 AM 30.2 °F 20.2 °F 24.8 °F 80% 30.26 in 9.0 mi SSW 12.7 mph - N/A   Overcast
7:29 AM 28.4 °F 19.7 °F 24.8 °F 86% 30.26 in 9.0 mi SSW 9.2 mph - N/A   Mostly Cloudy
7:30 AM 28.4 °F 19.1 °F 24.8 °F 86% 30.26 in 9.0 mi SSW 10.4 mph - N/A   Mostly Cloudy
7:47 AM 28.4 °F 19.1 °F 24.8 °F 86% 30.27 in 9.0 mi SSW 10.4 mph - N/A   Partly Cloudy
7:49 AM 28.4 °F 19.7 °F 24.8 °F 86% 30.27 in 9.0 mi SSW 9.2 mph - N/A   Partly Cloudy
8:00 AM 28.4 °F 18.5 °F 24.8 °F 86% 30.27 in 9.0 mi SSW 11.5 mph - N/A   Partly Cloudy
8:05 AM 28.4 °F 19.1 °F 24.8 °F 86% 30.27 in 9.0 mi SSW 10.4 mph - N/A   Scattered Clouds
8:08 AM 28.4 °F 19.1 °F 24.8 °F 86% 30.27 in 9.0 mi SSW 10.4 mph - N/A   Scattered Clouds
8:24 AM 28.4 °F 19.1 °F 24.8 °F 86% 30.28 in 9.0 mi SSW 10.4 mph - N/A   Mostly Cloudy
8:26 AM 28.4 °F 18.5 °F 24.8 °F 86% 30.28 in 9.0 mi SSW 11.5 mph - N/A   Scattered Clouds
8:43 AM 30.2 °F 21.3 °F 24.8 °F 80% 30.29 in 9.0 mi SSW 10.4 mph - N/A   Mostly Cloudy
8:45 AM 30.2 °F 20.8 °F 24.8 °F 80% 30.29 in 9.0 mi SSW 11.5 mph - N/A   Mostly Cloudy
9:00 AM 30.2 °F 19.8 °F 24.8 °F 80% 30.29 in 9.0 mi SW 13.8 mph - N/A   Mostly Cloudy
9:04 AM 30.2 °F 20.8 °F 24.8 °F 80% 30.29 in 9.0 mi SW 11.5 mph 18.4 mph N/A   Overcast
9:20 AM 30.2 °F 21.9 °F 24.8 °F 80% 30.30 in 9.0 mi SW 9.2 mph 17.3 mph N/A   Overcast
9:22 AM 30.2 °F 22.6 °F 24.8 °F 80% 30.31 in 9.0 mi WSW 8.1 mph 17.3 mph N/A   Overcast
9:39 AM 32.0 °F 25.6 °F 24.8 °F 75% 30.32 in 9.0 mi WSW 6.9 mph - N/A   Mostly Cloudy
9:40 AM 32.0 °F 25.6 °F 24.8 °F 75% 30.32 in 9.0 mi WSW 6.9 mph - N/A   Mostly Cloudy
9:57 AM 32.0 °F 24.2 °F 24.8 °F 75% 30.32 in 9.0 mi SW 9.2 mph - N/A   Mostly Cloudy
9:59 AM 32.0 °F 24.2 °F 24.8 °F 75% 30.32 in 9.0 mi SW 9.2 mph - N/A   Mostly Cloudy
10:00 AM 33.8 °F 27.0 °F 26.6 °F 75% 30.32 in 9.0 mi SW 8.1 mph - N/A   Mostly Cloudy
10:16 AM 33.8 °F 25.8 °F 26.6 °F 75% 30.32 in 9.0 mi SW 10.4 mph - N/A   Mostly Cloudy
10:18 AM 35.6 °F 27.5 °F 26.6 °F 70% 30.32 in 9.0 mi SW 11.5 mph - N/A   Mostly Cloudy
10:35 AM 33.8 °F 25.3 °F 26.6 °F 75% 30.33 in 9.0 mi SSW 11.5 mph - N/A   Overcast
10:36 AM 33.8 °F 25.8 °F 26.6 °F 75% 30.33 in 9.0 mi SSW 10.4 mph - N/A   Overcast
10:54 AM 35.6 °F 28.0 °F 26.6 °F 70% 30.34 in 9.0 mi SSW 10.4 mph - N/A   Overcast
10:55 AM 33.8 °F 26.4 °F 26.6 °F 75% 30.34 in 9.0 mi SSW 9.2 mph - N/A   Overcast
11:00 AM 33.8 °F 26.4 °F 26.6 °F 75% 30.34 in 9.0 mi SW 9.2 mph - N/A   Overcast
11:12 AM 35.6 °F 28.6 °F 26.6 °F 70% 30.35 in 9.0 mi SSW 9.2 mph - N/A   Mostly Cloudy
11:14 AM 35.6 °F 29.2 °F 26.6 °F 70% 30.34 in 9.0 mi SW 8.1 mph - N/A   Mostly Cloudy
11:31 AM 35.6 °F 29.9 °F 26.6 °F 70% 30.34 in 9.0 mi SW 6.9 mph - N/A   Overcast
11:32 AM 35.6 °F 29.9 °F 26.6 °F 70% 30.34 in 9.0 mi SW 6.9 mph - N/A   Overcast
11:50 AM 37.4 °F 31.4 °F 28.4 °F 70% 30.34 in 9.0 mi SW 8.1 mph - N/A   Overcast
12:00 PM 39.2 °F 35.0 °F 28.4 °F 65% 30.34 in 9.0 mi WSW 5.8 mph - N/A   Mostly Cloudy
1:00 PM 21 °F - 14 °F 66% 30.21 in - WNW 5.8 mph - -  
1:00 PM 39.2 °F 32.5 °F 26.6 °F 61% 30.33 in 9.0 mi SW 10.4 mph - N/A   Clear
2:00 PM 42.8 °F 36.6 °F 26.6 °F 53% 30.33 in 9.0 mi SSW 11.5 mph - N/A   Clear
3:00 PM 42.8 °F 37.5 °F 26.6 °F 53% 30.33 in 9.0 mi SW 9.2 mph - N/A   Clear
4:00 PM 41.0 °F 35.8 °F 26.6 °F 57% 30.34 in 9.0 mi SW 8.1 mph - N/A   Clear
5:00 PM 37.4 °F 32.1 °F 26.6 °F 65% 30.34 in 9.0 mi SSW 6.9 mph - N/A   Clear
5:08 PM 37.4 °F 31.4 °F 26.6 °F 65% 30.34 in 9.0 mi South 8.1 mph - N/A   Partly Cloudy
5:44 PM 35.6 °F 28.0 °F 26.6 °F 70% 30.34 in 9.0 mi South 10.4 mph - N/A   Partly Cloudy
5:45 PM 35.6 °F 28.6 °F 26.6 °F 70% 30.35 in 9.0 mi South 9.2 mph - N/A   Partly Cloudy
6:00 PM 35.6 °F 28.6 °F 26.6 °F 70% 30.35 in 9.0 mi South 9.2 mph - N/A   Clear
6:03 PM 35.6 °F 28.6 °F 26.6 °F 70% 30.35 in 9.0 mi South 9.2 mph - N/A   Clear
6:04 PM 35.6 °F 29.2 °F 26.6 °F 70% 30.35 in 9.0 mi South 8.1 mph - N/A   Clear
6:21 PM 33.8 °F 27.7 °F 26.6 °F 75% 30.36 in 9.0 mi SSW 6.9 mph - N/A   Clear
6:22 PM 33.8 °F 27.7 °F 26.6 °F 75% 30.36 in 9.0 mi SSW 6.9 mph - N/A   Clear
6:40 PM 33.8 °F 27.0 °F 26.6 °F 75% 30.36 in 9.0 mi South 8.1 mph - N/A   Clear
6:41 PM 33.8 °F 27.0 °F 28.4 °F 81% 30.36 in 9.0 mi South 8.1 mph - N/A   Clear
6:58 PM 33.8 °F 26.4 °F 28.4 °F 81% 30.37 in 9.0 mi South 9.2 mph - N/A   Clear
6:59 PM 33.8 °F 27.0 °F 28.4 °F 81% 30.37 in 9.0 mi South 8.1 mph - N/A   Clear
7:00 PM 5 °F - 3 °F 85% 30.31 in - Calm Calm - -  
7:00 PM 33.8 °F 27.0 °F 28.4 °F 81% 30.37 in 9.0 mi South 8.1 mph - N/A   Clear
7:17 PM 32.0 °F 24.2 °F 28.4 °F 87% 30.37 in 9.0 mi SSW 9.2 mph - N/A   Clear
7:18 PM 32.0 °F 24.2 °F 28.4 °F 87% 30.37 in 9.0 mi SSW 9.2 mph - N/A   Clear
7:35 PM 32.0 °F 23.6 °F 28.4 °F 87% 30.37 in 9.0 mi SSW 10.4 mph - N/A   Clear
7:36 PM 32.0 °F 23.6 °F 28.4 °F 87% 30.37 in 9.0 mi SSW 10.4 mph - N/A   Clear
7:53 PM 32.0 °F 24.2 °F 28.4 °F 87% 30.37 in 9.0 mi SSW 9.2 mph - N/A   Clear
7:55 PM 32.0 °F 23.6 °F 28.4 °F 87% 30.37 in 9.0 mi SSW 10.4 mph - N/A   Clear
8:00 PM 32.0 °F 23.6 °F 28.4 °F 87% 30.38 in 9.0 mi SSW 10.4 mph - N/A   Clear
8:12 PM 32.0 °F 24.2 °F 28.4 °F 87% 30.38 in 9.0 mi SSW 9.2 mph - N/A   Clear
8:14 PM 32.0 °F 24.2 °F 28.4 °F 87% 30.38 in 9.0 mi SSW 9.2 mph - N/A   Clear
8:31 PM 32.0 °F 23.6 °F 28.4 °F 87% 30.38 in 9.0 mi South 10.4 mph - N/A   Clear
8:33 PM 32.0 °F 23.6 °F 28.4 °F 87% 30.38 in 9.0 mi South 10.4 mph - N/A   Clear
8:50 PM 32.0 °F 23.6 °F 28.4 °F 87% 30.38 in 9.0 mi SSW 10.4 mph - N/A   Clear
8:51 PM 32.0 °F 24.2 °F 28.4 °F 87% 30.38 in 9.0 mi South 9.2 mph - N/A   Clear
9:00 PM 32.0 °F 24.2 °F 28.4 °F 87% 30.38 in 9.0 mi South 9.2 mph - N/A   Clear
9:09 PM 32.0 °F 24.2 °F 28.4 °F 87% 30.38 in 9.0 mi South 9.2 mph - N/A   Clear
9:10 PM 32.0 °F 24.2 °F 28.4 °F 87% 30.38 in 9.0 mi South 9.2 mph - N/A   Clear
9:27 PM 32.0 °F 24.8 °F 28.4 °F 87% 30.38 in 9.0 mi South 8.1 mph - N/A   Clear
9:29 PM 32.0 °F 25.6 °F 28.4 °F 87% 30.38 in 9.0 mi South 6.9 mph - N/A   Clear
9:46 PM 30.2 °F 23.4 °F 28.4 °F 93% 30.39 in 8.0 mi SSW 6.9 mph - N/A   Clear
9:48 PM 30.2 °F 23.4 °F 28.4 °F 93% 30.39 in 8.0 mi SSW 6.9 mph - N/A   Clear
10:00 PM 30.2 °F 22.6 °F 28.4 °F 93% 30.39 in 8.0 mi SSW 8.1 mph - N/A   Clear
10:05 PM 30.2 °F 23.4 °F 28.4 °F 93% 30.39 in 8.0 mi South 6.9 mph - N/A   Clear
10:07 PM 30.2 °F 23.4 °F 28.4 °F 93% 30.39 in 8.0 mi South 6.9 mph - N/A   Clear
10:24 PM 30.2 °F 22.6 °F 28.4 °F 93% 30.39 in 7.0 mi South 8.1 mph - N/A   Clear
10:25 PM 30.2 °F 22.6 °F 28.4 °F 93% 30.39 in 7.0 mi South 8.1 mph - N/A   Clear
10:42 PM 30.2 °F 23.4 °F 28.4 °F 93% 30.39 in 6.0 mi South 6.9 mph - N/A   Clear
10:44 PM 30.2 °F 23.4 °F 28.4 °F 93% 30.39 in 6.0 mi South 6.9 mph - N/A   Clear
11:00 PM 30.2 °F 23.4 °F 28.4 °F 93% 30.39 in 6.0 mi South 6.9 mph - N/A   Clear
11:03 PM 30.2 °F 23.4 °F 28.4 °F 93% 30.39 in 6.0 mi South 6.9 mph - N/A   Clear
11:20 PM 30.2 °F 22.6 °F 28.4 °F 93% 30.39 in 6.0 mi South 8.1 mph - N/A   Clear
11:22 PM 30.2 °F 21.9 °F 28.4 °F 93% 30.39 in 6.0 mi South 9.2 mph - N/A   Clear
11:38 PM 30.2 °F 21.9 °F 28.4 °F 93% 30.39 in 6.0 mi South 9.2 mph - N/A   Clear
11:41 PM 30.2 °F 21.9 °F 28.4 °F 93% 30.39 in 6.0 mi South 9.2 mph - N/A   Clear
11:58 PM 30.2 °F 22.6 °F 28.4 °F 93% 30.40 in 6.0 mi SSW 8.1 mph - N/A   Clear